| time (UTC) | temp F | wind direction | speed MPH | gust MPH | rain 1hr in | rain 24hr in | rain mn in | humidity % | barometer mb |
| 20260504183017 | 73 | 221 | 5.0 | 10.0 | 0.00 | 0.00 | 0.00 | 47 | 680.0 |
| 20260504182017 | 73 | 212 | 8.0 | 10.0 | 0.00 | 0.00 | 0.00 | 47 | 680.1 |
| 20260504181018 | 73 | 212 | 9.0 | 16.0 | 0.00 | 0.00 | 0.00 | 47 | 680.1 |
| 20260504180018 | 74 | 229 | 7.0 | 10.0 | 0.00 | 0.00 | 0.00 | 46 | 680.1 |
| 20260504175018 | 75 | 216 | 8.0 | 14.0 | 0.00 | 0.00 | 0.00 | 44 | 680.1 |
| 20260504174119 | 75 | 225 | 7.0 | 10.0 | 0.00 | 0.00 | 0.00 | 43 | 680.1 |
| 20260504173018 | 75 | 218 | 7.0 | 11.0 | 0.00 | 0.00 | 0.00 | 42 | 680.1 |
| 20260504172038 | 76 | 231 | 9.0 | 13.0 | 0.00 | 0.00 | 0.00 | 42 | 680.1 |
| 20260504171019 | 75 | 241 | 5.0 | 9.0 | 0.00 | 0.00 | 0.00 | 42 | 680.1 |
| 20260504151040 | 70 | 222 | 7.0 | 10.0 | 0.00 | 0.00 | 0.00 | 54 | 679.9 |
| 20260504141022 | 62 | 230 | 5.0 | 8.0 | 0.00 | 0.00 | 0.00 | 64 | 679.7 |
| 20260504081021 | 48 | 235 | 4.0 | 7.0 | 0.00 | 0.00 | 0.00 | 72 | 679.4 |
| 20260504050023 | 51 | 238 | 3.0 | 6.0 | 0.00 | 0.00 | 0.00 | 64 | 679.5 |
| 20260504045023 | 51 | 243 | 3.0 | 7.0 | 0.00 | 0.00 | 0.00 | 65 | 679.5 |
| 20260504044024 | 51 | 232 | 4.0 | 7.0 | 0.00 | 0.00 | 0.00 | 65 | 679.5 |
| 20260504043024 | 51 | 233 | 4.0 | 7.0 | 0.00 | 0.00 | 0.00 | 65 | 679.5 |
| 20260504042024 | 51 | 235 | 4.0 | 7.0 | 0.00 | 0.00 | 0.00 | 65 | 679.5 |
| 20260504041024 | 51 | 239 | 4.0 | 7.0 | 0.00 | 0.00 | 0.00 | 65 | 679.5 |
| 20260504040024 | 51 | 233 | 4.0 | 7.0 | 0.00 | 0.00 | 0.00 | 63 | 679.5 |
| 20260504035024 | 52 | 242 | 3.0 | 6.0 | 0.00 | 0.00 | 0.00 | 63 | 679.5 |
| 20260504034025 | 52 | 237 | 3.0 | 7.0 | 0.00 | 0.00 | 0.00 | 61 | 679.5 |
| 20260504033025 | 53 | 235 | 3.0 | 5.0 | 0.00 | 0.00 | 0.00 | 60 | 679.5 |
| 20260504032025 | 53 | 246 | 3.0 | 6.0 | 0.00 | 0.00 | 0.00 | 60 | 679.6 |
| 20260504031045 | 53 | 243 | 4.0 | 9.0 | 0.00 | 0.00 | 0.00 | 60 | 679.6 |
| 20260504030025 | 54 | 250 | 3.0 | 6.0 | 0.00 | 0.00 | 0.00 | 61 | 679.6 |
| 20260504025025 | 54 | 256 | 3.0 | 6.0 | 0.00 | 0.00 | 0.00 | 60 | 679.6 |
| 20260504024046 | 54 | 259 | 4.0 | 6.0 | 0.00 | 0.00 | 0.00 | 59 | 679.6 |
| 20260504023026 | 54 | 242 | 4.0 | 10.0 | 0.00 | 0.00 | 0.00 | 57 | 679.6 |
| 20260504022026 | 54 | 234 | 4.0 | 7.0 | 0.00 | 0.00 | 0.00 | 56 | 679.6 |
| 20260504021046 | 54 | 226 | 5.0 | 7.0 | 0.00 | 0.00 | 0.00 | 55 | 679.6 |
| 20260504020026 | 55 | 227 | 3.0 | 9.0 | 0.00 | 0.00 | 0.00 | 54 | 679.6 |
| 20260504015046 | 55 | 237 | 4.0 | 8.0 | 0.00 | 0.00 | 0.00 | 53 | 679.6 |
| 20260504014026 | 55 | 240 | 4.0 | 7.0 | 0.00 | 0.00 | 0.00 | 53 | 679.6 |
| 20260504013027 | 55 | 233 | 4.0 | 7.0 | 0.00 | 0.00 | 0.00 | 52 | 679.6 |
| 20260504012027 | 55 | 239 | 5.0 | 8.0 | 0.00 | 0.00 | 0.00 | 52 | 679.6 |
| 20260504011027 | 55 | 235 | 4.0 | 10.0 | 0.00 | 0.00 | 0.00 | 51 | 679.6 |
| 20260504010027 | 56 | 231 | 5.0 | 9.0 | 0.00 | 0.00 | 0.00 | 51 | 679.6 |
| 20260504005027 | 56 | 238 | 4.0 | 6.0 | 0.00 | 0.00 | 0.00 | 51 | 679.6 |
| 20260504004027 | 56 | 230 | 3.0 | 7.0 | 0.00 | 0.00 | 0.00 | 51 | 679.6 |
| 20260504003047 | 56 | 230 | 3.0 | 6.0 | 0.00 | 0.00 | 0.00 | 51 | 679.6 |
| 20260504002048 | 56 | 235 | 4.0 | 8.0 | 0.00 | 0.00 | 0.00 | 50 | 679.6 |
| 20260504001028 | 57 | 237 | 4.0 | 7.0 | 0.00 | 0.00 | 0.00 | 48 | 679.6 |
| 20260504000028 | 57 | 244 | 4.0 | 8.0 | 0.00 | 0.00 | 0.00 | 48 | 679.7 |
| 20260503235028 | 57 | 236 | 3.0 | 4.0 | 0.00 | 0.00 | 0.00 | 48 | 679.7 |
| 20260503234028 | 58 | 240 | 3.0 | 8.0 | 0.00 | 0.00 | 0.00 | 48 | 679.7 |
| 20260503233048 | 58 | 262 | 2.0 | 4.0 | 0.00 | 0.00 | 0.00 | 47 | 679.7 |
| 20260503232029 | 58 | 273 | 2.0 | 6.0 | 0.00 | 0.00 | 0.00 | 47 | 679.7 |
| 20260503231029 | 58 | 262 | 2.0 | 5.0 | 0.00 | 0.00 | 0.00 | 47 | 679.7 |
| 20260503230029 | 58 | 263 | 3.0 | 6.0 | 0.00 | 0.00 | 0.00 | 47 | 679.7 |
| 20260503225029 | 58 | 248 | 3.0 | 8.0 | 0.00 | 0.00 | 0.00 | 47 | 679.7 |
| 20260503224109 | 58 | 264 | 3.0 | 6.0 | 0.00 | 0.00 | 0.00 | 46 | 679.7 |
| 20260503223029 | 58 | 239 | 3.0 | 9.0 | 0.00 | 0.00 | 0.00 | 46 | 679.7 |
| 20260503222030 | 58 | 292 | 1.0 | 3.0 | 0.00 | 0.00 | 0.00 | 46 | 679.7 |
| 20260503221029 | 58 | 291 | 2.0 | 4.0 | 0.00 | 0.00 | 0.00 | 46 | 679.7 |
| 20260503220030 | 58 | 285 | 2.0 | 6.0 | 0.00 | 0.00 | 0.00 | 46 | 679.7 |
| 20260503215030 | 58 | 240 | 2.0 | 3.0 | 0.00 | 0.00 | 0.00 | 46 | 679.7 |
| 20260503214029 | 58 | 259 | 2.0 | 5.0 | 0.00 | 0.00 | 0.00 | 44 | 679.7 |
| 20260503213030 | 59 | 239 | 4.0 | 8.0 | 0.00 | 0.00 | 0.00 | 44 | 679.7 |
| 20260503212030 | 59 | 233 | 4.0 | 8.0 | 0.00 | 0.00 | 0.00 | 46 | 679.7 |
| 20260503211050 | 59 | 262 | 1.0 | 3.0 | 0.00 | 0.00 | 0.00 | 47 | 679.7 |
| 20260503210051 | 59 | 301 | 2.0 | 3.0 | 0.00 | 0.00 | 0.00 | 46 | 679.7 |
| 20260503205031 | 59 | 239 | 5.0 | 11.0 | 0.00 | 0.00 | 0.00 | 48 | 679.7 |
| 20260503204031 | 58 | 302 | 2.0 | 6.0 | 0.00 | 0.00 | 0.00 | 48 | 679.7 |
| 20260503203031 | 58 | 333 | 3.0 | 6.0 | 0.00 | 0.00 | 0.00 | 51 | 679.7 |
| 20260503202031 | 58 | 277 | 2.0 | 3.0 | 0.00 | 0.00 | 0.00 | 50 | 679.7 |
| 20260503201017 | 58 | 322 | 5.0 | 11.0 | 0.00 | 0.00 | 0.00 | 48 | 679.7 |
| 20260503200017 | 59 | 302 | 2.0 | 6.0 | 0.00 | 0.00 | 0.00 | 47 | 679.7 |
| 20260503195017 | 59 | 280 | 3.0 | 8.0 | 0.00 | 0.00 | 0.00 | 47 | 679.7 |
| 20260503194017 | 59 | 283 | 1.0 | 3.0 | 0.00 | 0.00 | 0.00 | 46 | 679.7 |
| 20260503193037 | 59 | 301 | 1.0 | 3.0 | 0.00 | 0.00 | 0.00 | 44 | 679.8 |
| 20260503192017 | 60 | 307 | 2.0 | 5.0 | 0.00 | 0.00 | 0.00 | 46 | 679.8 |
| 20260503191017 | 59 | 294 | 2.0 | 5.0 | 0.00 | 0.00 | 0.00 | 46 | 679.7 |
| 20260503190018 | 60 | 266 | 3.0 | 12.0 | 0.00 | 0.00 | 0.00 | 45 | 679.8 |
| 20260503185032 | 60 | 264 | 2.0 | 5.0 | 0.00 | 0.00 | 0.00 | 46 | 679.8 |
| 20260503184032 | 59 | 286 | 3.0 | 7.0 | 0.00 | 0.00 | 0.00 | 44 | 679.7 |